Notices

Please take our survey and provide feedback: https://eccc.sondage-survey.ca/f/LanguageSelection.aspx?s=442ca660-fcf1-47c0-95a9-59707d6fd709

Please note that the IDF dataset is available through this link: Intensity-Duration-Frequency (IDF) Files .

Hourly Data Report for November 08, 2020

SHEARWATER RCS
NOVA SCOTIA
Current Station Operator: ECCC - MSC

44°37'47.000" N
63°30'48.000" W
24.00 m
8205092
71264
AAW

Download Data

Hourly Data (November 2020)
Hourly Data Report for November 8, 2020
TIME
LST
Temp Definition
°C
Dew Point Definition
°C
Rel Hum Definition
%
Precip. Amount Definition
mm

Wind Dir Definition
10's deg

Wind Spd Definition
km/h
Visibility Definition
km
Stn Press Definition
kPa
Hmdx Definition


Wind Chill Definition


Weather Definition


00:00 6.9 3.4 79 0.0 4 6   102.07     LegendNANA
01:00 6.5 3.7 82 0.0 8 6   102.10     LegendNANA
02:00 6.5 3.5 81 0.0 5 11   102.16     LegendNANA
03:00 6.0 2.9 80 0.0 5 13   102.19     LegendNANA
04:00 5.9 2.4 78 0.0 4 10   102.26     LegendNANA
05:00 5.8 2.2 78 0.0 4 12   102.32     LegendNANA
06:00 5.5 2.2 79 0.0 3 7   102.37     LegendNANA
07:00 5.3 1.7 78 0.0 3 7   102.45     LegendNANA
08:00 5.6 1.9 77 0.0 4 7   102.55     LegendNANA
09:00 6.0 1.8 75 0.0 2 11   102.62     LegendNANA
10:00 6.2 1.7 73 0.0 3 10   102.64     LegendNANA
11:00 6.4 1.7 72 0.0 4 9   102.64     LegendNANA
12:00 6.6 1.6 70 0.0 4 11   102.59     LegendNANA
13:00 7.0 1.5 68 0.0 5 9   102.59     LegendNANA
14:00 7.1 1.9 69 0.0 5 8   102.57     LegendNANA
15:00 7.2 2.3 71 0.0 4 7   102.60     LegendNANA
16:00 7.2 2.3 71 0.0 5 5   102.61     LegendNANA
17:00 7.1 2.5 73 0.0 10 2   102.63     LegendNANA
18:00 6.9 2.6 74 0.0 9 3   102.64     LegendNANA
19:00 6.9 2.6 74 0.0 7 2   102.65     LegendNANA
20:00 7.0 2.7 74 0.0   0   102.65     LegendNANA
21:00 7.2 3.2 76 0.0 8 1   102.63     LegendNANA
22:00 8.0 4.9 81 0.0 13 7   102.56     LegendNANA
23:00 8.6 5.7 82 0.0 18 7   102.56     LegendNANA

Notes on Data Quality.

Legend

  • E = Estimated
  • M = Missing
  • NA = Not Available*
  • [empty] = Indicates an unobserved value
Date modified: